Hourly Data Report for July 04, 2022

MIRAMICHI RCS
NEW BRUNSWICK
Current Station Operator: ECCC - MSC

47°00'34.000" N
65°27'54.000" W
33.00 m
8100989
71744
ACQ

Download Data

Hourly Data (July 2022)
Hourly Data Report for July 4, 2022
TIME
LST
Temp Definition
°C
Dew Point Definition
°C
Rel Hum Definition
%
Precip. Amount Definition
mm

Wind Dir Definition
10's deg

Wind Spd Definition
km/h
Visibility Definition
km
Stn Press Definition
kPa
Hmdx Definition


Wind Chill Definition


Weather Definition


00:00 14.2 10.9 80 0.0 27 8   100.72     LegendNANA
01:00 13.7 11.0 84 0.0 26 9   100.74     LegendNANA
02:00 12.8 10.3 84 0.0 26 13   100.76     LegendNANA
03:00 12.2 9.5 83 0.0 27 13   100.74     LegendNANA
04:00 11.4 9.1 86 0.0 26 12   100.79     LegendNANA
05:00 11.1 8.9 86 0.0 25 12   100.83     LegendNANA
06:00 12.0 9.2 83 0.0 24 11   100.87     LegendNANA
07:00 13.9 9.5 75 0.0 26 10   100.90     LegendNANA
08:00 15.7 8.3 62 0.0 28 17   100.94     LegendNANA
09:00 17.0 7.0 52 0.0 27 18   100.90     LegendNANA
10:00 18.2 4.9 42 0.0 28 24   100.85     LegendNANA
11:00 19.2 5.5 40 0.0 28 22   100.81     LegendNANA
12:00 20.5 5.8 38 0.0 28 19   100.76     LegendNANA
13:00 21.4 4.8 34 0.0 26 26   100.70     LegendNANA
14:00 22.2 5.2 33 0.0 27 24   100.67     LegendNANA
15:00 22.8 6.4 35 0.0 25 22   100.67     LegendNANA
16:00 23.0 5.6 32 0.0 26 26   100.66     LegendNANA
17:00 23.2 3.3 27 0.0 27 26   100.64     LegendNANA
18:00 23.0 4.7 30 0.0 28 17   100.68     LegendNANA
19:00 21.9 5.3 34 0.0 28 17   100.72     LegendNANA
20:00 19.6 4.9 38 0.0 28 13   100.80     LegendNANA
21:00 16.2 6.7 53 0.0 24 3   100.86     LegendNANA
22:00 14.5 7.0 61 0.0 26 9   100.88     LegendNANA
23:00 13.5 7.1 65 0.0 26 9   100.86     LegendNANA

Notes on Data Quality.

Legend

  • E = Estimated
  • M = Missing
  • NA = Not Available*
  • [empty] = Indicates an unobserved value
Date modified: